Location: Peebles
(55.6412°N, 3.1714°W)
Time: 22:39:25
(UTC+01:00)

N. Korean satellite - Visible Passes

Search period start: 28 March 2023 00:00
Search period end: 07 April 2023 00:00
Orbit: 391 x 417 km, 97.3° (Epoch: 28 March)

Date Brightness Start Highest point End Pass type
(mag) Time Alt. Az. Time Alt. Az. Time Alt. Az.
28 Mar 9.3 06:00:08 10° NE 06:02:24 18° E 06:04:38 10° SE visible
30 Mar 9.4 05:53:55 10° NE 05:55:54 15° E 05:57:51 10° SE visible
01 Apr 9.6 05:47:18 10° ENE 05:48:51 13° E 05:50:24 10° ESE visible
03 Apr 9.9 05:40:26 10° ENE 05:41:16 11° E 05:42:05 10° ESE visible
